Theta_e
312 314 312 313 314 316 319 318 314 313 314 315 314 314 313 313 313 314 312 310 310 311 311 315 315 314 315 314 313 313 311 312 315 318 320 318 317 319 320 322 323 322 321 319 318 317 316 315 315 314 316 318 319 320 320 320 320 320 321 323 324 323 322 321 319 317 316 316 318 319 318 317 318 321 323 323 322 322 322 321 321 321 320 320 320 321
312 312 315 319 320 318 321 320 317 317 317 316 314 313 313 313 313 313 312 312 311 312 313 315 316 315 316 317 317 316 314 313 314 316 319 319 318 318 318 320 322 322 320 318 318 318 316 315 314 314 315 316 317 318 318 318 319 320 320 322 323 322 321 320 318 316 315 315 316 317 317 316 319 322 322 322 321 319 319 319 319 317 316 315 315 318
313 312 317 319 319 318 320 318 319 320 318 316 313 313 314 312 312 314 314 314 312 313 315 314 314 316 318 319 319 318 316 318 317 315 316 317 318 317 317 319 321 321 320 319 319 319 318 316 315 314 314 316 317 317 318 318 318 319 320 321 322 322 320 319 317 315 314 314 315 314 313 315 318 321 320 318 315 313 314 316 316 315 313 313 315 318
311 312 316 317 317 321 322 317 319 320 316 315 314 313 315 314 313 314 315 317 314 313 314 314 313 317 321 321 319 315 314 318 319 315 314 314 316 318 318 318 319 321 321 320 320 319 319 318 316 315 315 315 316 316 317 317 318 318 319 320 321 321 320 317 316 314 312 313 314 311 312 313 315 316 315 313 312 312 313 315 315 314 313 315 317 319
309 311 315 318 317 319 322 318 317 317 315 318 318 314 314 316 315 313 316 319 317 314 314 314 312 315 319 319 317 313 312 315 316 313 314 313 312 314 315 317 318 320 322 321 320 319 320 319 318 317 316 316 316 316 316 316 317 317 318 319 319 319 318 316 314 312 311 313 312 310 311 311 311 312 313 313 314 313 314 315 315 313 314 317 318 317
309 310 312 318 318 317 319 318 318 318 315 317 321 318 318 318 318 317 317 318 316 314 314 313 311 313 317 318 316 315 314 316 314 314 314 313 312 310 311 314 317 319 321 321 320 320 320 320 319 318 316 316 316 316 316 316 316 317 317 317 318 318 317 315 313 311 311 312 310 309 309 309 310 314 314 313 313 313 315 315 314 313 314 316 316 316
310 309 312 319 321 319 317 316 319 319 314 315 319 320 318 318 320 320 318 315 313 313 314 313 312 313 315 316 316 315 316 316 315 316 314 311 311 311 311 312 314 316 318 319 320 319 320 321 320 319 317 316 317 316 316 316 316 316 316 316 317 317 316 314 312 311 311 312 309 307 307 307 309 311 311 311 311 312 313 314 314 315 314 315 316 317
312 313 314 320 323 319 315 317 319 317 314 315 318 316 314 316 321 321 317 315 313 313 314 313 312 314 315 315 315 314 314 315 315 316 314 311 310 311 311 312 312 313 316 318 319 319 319 321 320 319 318 317 316 316 315 315 315 316 316 316 316 316 315 313 312 311 311 311 310 307 307 307 307 308 308 309 311 312 313 313 315 316 315 316 317 317
315 316 314 319 320 315 314 320 319 316 314 316 314 312 311 315 320 319 316 314 313 312 313 313 312 313 314 314 314 312 312 314 315 313 312 311 310 310 310 310 310 311 313 316 318 318 319 320 321 320 318 317 316 316 316 315 315 315 315 314 315 315 314 313 312 311 311 311 310 309 308 307 307 307 308 310 311 312 312 313 314 316 316 316 317 317
312 310 310 314 314 312 317 318 314 315 316 313 309 309 309 310 314 315 313 313 313 312 312 314 313 313 313 313 313 312 313 313 313 312 311 311 311 310 310 310 309 309 309 311 314 317 319 320 320 320 319 317 316 315 315 315 315 315 315 314 314 315 314 313 312 312 312 311 311 310 310 309 308 307 308 309 311 312 313 313 313 316 317 316 317 317
308 308 310 312 311 312 314 310 308 311 312 310 309 309 309 309 311 312 312 311 312 312 312 313 312 312 312 312 312 312 312 311 310 312 312 311 310 310 310 309 308 308 307 308 309 313 318 319 320 319 318 317 316 315 315 315 315 315 314 313 313 314 314 314 312 313 312 312 312 312 310 311 311 310 308 309 311 312 313 312 313 316 317 316 317 317
309 308 309 311 312 310 309 307 305 306 307 309 311 312 311 312 312 311 311 311 311 312 312 309 309 311 311 312 312 311 311 309 310 311 311 310 309 309 309 308 308 308 307 307 308 312 316 318 319 319 319 318 315 315 315 315 315 314 314 312 311 312 313 314 313 313 313 312 313 313 312 312 312 312 309 308 309 310 311 310 312 315 317 317 317 316
312 310 308 307 309 310 310 310 307 306 307 310 312 313 313 313 312 311 311 310 311 313 310 307 309 311 311 312 312 311 311 309 309 309 309 308 308 308 308 307 308 308 309 309 309 312 316 318 320 320 320 318 316 316 315 315 315 314 313 312 310 310 312 313 313 314 314 313 312 313 313 312 312 313 311 309 307 308 308 308 310 313 316 316 316 315
312 312 310 307 308 309 310 311 310 310 310 311 313 314 314 313 310 312 311 309 311 312 310 308 310 311 311 312 310 310 310 308 308 307 307 307 307 307 307 307 307 308 310 311 311 313 316 318 320 320 320 318 317 317 316 316 315 314 314 311 310 310 310 311 312 313 313 314 314 313 314 314 313 313 312 310 309 307 306 306 307 309 312 312 312 312
310 312 311 310 309 307 309 310 311 311 310 309 310 311 313 313 312 312 311 310 311 312 310 309 310 312 313 312 310 310 309 307 307 306 306 306 306 307 307 307 308 308 310 312 313 315 317 319 320 320 319 318 317 317 316 315 315 314 313 312 311 311 311 311 312 313 314 314 314 314 314 315 315 315 314 311 310 309 307 306 306 307 308 308 308 309
308 309 310 309 306 306 308 307 307 309 310 307 306 309 313 313 313 311 309 310 311 310 311 310 310 312 312 310 309 309 308 307 306 306 306 307 307 307 308 308 309 309 309 310 313 315 317 320 320 319 319 318 317 317 316 315 315 315 314 313 312 312 311 312 313 314 315 315 315 315 316 316 317 317 316 313 311 310 309 307 306 306 307 307 307 308
308 310 311 308 306 306 306 306 306 308 310 308 307 310 310 309 313 313 308 307 308 310 310 310 310 311 310 310 309 308 307 306 306 306 306 307 307 308 309 308 308 309 310 310 310 312 315 318 320 320 320 318 318 317 316 315 315 315 315 314 313 312 311 312 313 314 315 315 316 316 316 317 318 318 316 313 311 310 310 309 307 306 306 307 308 308
308 311 312 309 308 307 305 306 307 306 307 309 309 310 308 307 311 313 310 308 309 311 310 309 311 311 311 312 309 308 307 307 306 306 306 306 307 307 308 308 308 309 310 310 310 310 311 314 317 319 320 319 319 318 316 315 315 315 315 315 315 314 312 311 312 313 314 315 315 316 316 317 317 317 315 313 311 311 311 311 309 307 307 307 308 308
307 310 311 308 308 308 306 307 309 307 306 307 308 308 308 310 311 311 310 311 310 310 310 309 309 310 311 311 309 308 308 307 307 306 306 306 306 306 307 307 308 308 309 309 309 309 310 311 314 315 318 318 318 318 317 316 315 315 315 315 315 315 314 313 312 312 314 314 315 315 316 317 317 316 314 312 312 311 311 311 311 309 307 307 308 308
307 310 311 309 307 307 308 309 311 310 307 307 307 307 308 310 312 311 311 311 311 310 309 310 310 310 311 311 310 308 308 308 307 307 307 306 305 306 307 307 307 308 308 308 308 308 308 310 311 312 313 315 316 317 318 317 317 316 316 315 316 316 315 315 313 313 313 313 314 314 315 316 316 316 314 312 311 311 311 312 312 311 309 308 308 308
309 309 311 311 308 308 310 310 310 311 310 309 309 309 309 309 309 310 310 310 309 310 309 309 310 310 310 310 310 308 308 308 307 307 307 306 306 307 307 307 307 307 307 307 307 307 308 309 309 309 310 311 313 315 316 317 318 318 318 317 316 316 316 316 315 315 314 313 313 314 314 316 315 315 314 313 312 312 311 312 312 313 311 309 308 308
311 309 310 311 310 311 310 307 306 308 309 310 310 310 310 310 309 310 311 309 308 310 309 309 311 311 311 311 311 308 308 307 306 306 307 306 307 307 307 307 307 307 307 307 307 307 307 308 308 308 308 308 309 310 311 314 315 317 318 318 318 317 317 317 316 316 316 315 314 314 314 314 314 314 314 313 312 312 312 312 313 313 312 310 309 309
313 311 310 310 310 310 308 304 303 304 305 307 308 307 309 312 312 311 312 311 310 309 308 308 310 311 310 311 311 308 307 307 305 306 307 306 307 307 306 307 306 306 306 306 306 306 307 308 307 307 308 307 308 307 307 308 310 311 314 316 317 318 318 318 317 317 317 316 316 315 314 314 313 314 314 313 313 313 313 312 313 314 314 312 311 310
312 311 310 310 310 308 306 303 302 302 303 305 306 305 306 309 311 311 311 311 311 310 309 310 310 311 310 309 307 306 305 305 305 306 307 307 307 307 307 306 306 306 306 306 306 307 308 308 307 307 307 307 307 307 307 306 306 306 307 309 312 314 317 318 318 317 317 317 317 317 316 316 314 314 314 314 314 314 313 313 313 313 314 313 312 311
308 310 310 309 309 308 307 307 306 306 306 307 307 305 304 307 310 311 310 309 309 309 311 311 311 311 310 307 306 305 304 305 305 305 306 308 308 307 307 306 306 306 306 306 306 307 307 307 307 307 307 307 307 307 307 307 305 305 304 304 305 307 311 314 317 318 318 317 317 317 317 317 316 316 315 315 315 315 314 314 313 314 314 314 312 311
307 310 310 308 308 308 307 307 308 308 307 306 306 305 304 307 310 310 309 308 308 308 308 310 311 310 309 307 306 305 305 306 307 305 305 306 307 306 306 306 306 306 305 306 305 306 306 306 307 307 306 306 306 306 306 307 306 306 305 304 303 303 304 307 311 315 317 318 318 318 318 318 317 317 316 316 315 315 315 314 314 314 314 314 312 311
309 310 311 309 309 308 307 307 306 306 307 307 307 306 305 307 309 308 308 308 308 307 307 309 310 310 310 308 306 306 306 306 308 306 306 306 306 306 306 306 306 305 305 305 305 305 305 305 306 306 306 306 306 306 306 306 306 306 306 305 304 303 303 302 303 307 312 316 318 318 318 318 318 318 318 317 316 315 315 314 314 314 313 312 311 311
310 308 310 311 309 307 306 306 304 303 305 306 306 307 307 307 309 308 308 308 308 307 306 309 311 310 309 309 308 307 307 307 307 307 307 307 306 306 305 305 306 305 305 304 304 304 304 304 305 306 306 305 305 305 305 304 305 304 304 304 303 303 302 301 301 302 304 309 313 317 318 318 318 318 318 318 317 315 315 315 314 314 313 312 310 311
309 307 308 309 308 307 305 304 303 303 304 305 305 307 307 307 308 307 308 309 308 307 307 311 315 312 308 308 309 309 308 307 307 307 307 306 306 305 305 305 306 305 305 304 303 304 303 303 304 305 305 305 305 305 305 305 304 304 304 303 303 302 301 300 301 301 302 303 307 311 315 317 317 317 318 318 317 316 315 315 314 314 313 312 311 311
307 306 308 307 307 307 305 305 305 304 305 305 305 307 306 306 307 307 308 309 308 308 307 308 314 314 309 308 309 309 308 307 307 307 306 305 305 305 306 306 306 304 304 303 303 303 303 303 304 305 305 305 305 304 304 304 304 304 305 304 304 303 302 301 300 300 301 302 304 307 311 314 316 316 317 317 316 316 316 315 314 314 313 312 311 311
304 306 308 306 305 305 304 304 304 304 305 305 305 306 305 305 306 305 306 306 305 306 306 305 309 310 307 306 307 306 305 305 306 306 306 306 306 305 306 306 305 304 303 303 304 303 303 304 305 306 305 305 305 304 304 304 304 304 304 304 304 303 302 302 301 300 300 301 302 304 307 312 315 316 316 316 316 315 315 314 314 312 312 311 310 310
304 304 306 305 303 303 302 302 303 304 304 304 305 306 305 305 306 305 305 305 305 306 305 306 307 306 305 305 304 304 305 306 306 307 307 306 305 305 306 305 304 303 303 303 303 303 303 303 304 305 305 305 304 304 303 303 303 304 304 304 303 303 302 301 301 301 301 300 300 302 305 310 314 315 316 316 315 315 314 313 312 311 310 310 309 309
304 303 303 303 302 301 302 303 304 304 303 303 304 306 307 307 307 306 305 306 306 306 306 306 305 306 306 305 303 305 307 307 307 307 305 305 305 305 306 305 304 303 303 303 303 303 303 303 304 304 304 304 303 303 303 302 302 303 303 303 302 302 301 302 302 302 302 301 300 301 303 308 312 315 315 315 315 314 313 312 311 310 309 309 309 309
304 303 301 302 301 300 302 304 304 303 302 302 302 304 305 306 306 307 307 306 306 306 304 304 305 305 305 304 305 307 307 306 305 304 303 303 304 304 305 305 304 304 303 304 303 303 304 304 304 304 304 303 303 303 302 302 302 302 302 301 302 301 301 302 302 303 302 301 301 301 302 306 310 314 315 314 314 314 312 311 310 309 309 308 308 308
303 302 301 301 300 300 301 302 303 303 303 302 301 302 303 303 303 305 305 305 305 305 304 303 304 304 304 304 304 305 305 304 303 303 303 303 303 304 304 304 304 304 304 304 303 304 304 304 304 304 304 303 303 302 302 302 302 302 301 301 301 301 301 302 302 303 303 302 301 301 303 307 310 313 314 314 314 313 312 311 309 309 308 308 308 308
302 302 301 301 300 300 300 301 303 303 302 302 303 303 303 303 303 304 303 304 303 303 304 305 305 305 305 304 303 302 303 303 303 304 303 302 302 303 304 304 304 304 303 303 303 304 304 304 303 303 303 303 302 302 302 302 302 302 302 301 301 301 301 302 302 303 303 303 303 303 305 307 310 312 313 313 313 312 311 310 309 308 308 307 307 306
301 301 301 301 301 300 300 301 301 302 302 303 304 304 302 303 304 303 303 303 302 301 302 304 304 304 304 304 302 302 303 303 303 303 301 301 301 302 302 302 303 303 303 303 302 302 302 302 302 302 302 302 302 302 302 302 301 302 301 301 301 301 301 302 302 303 303 303 304 304 305 307 309 311 312 312 312 312 311 309 309 308 307 307 306 305
300 301 301 301 300 299 300 301 302 303 303 302 303 302 301 302 302 302 302 302 301 300 300 301 302 302 303 303 302 302 303 303 303 302 301 300 300 301 301 302 302 302 303 302 302 302 302 302 302 302 302 301 301 302 302 302 301 301 301 301 301 301 301 302 302 303 303 303 304 304 305 306 308 310 311 312 312 312 311 309 308 307 306 306 305 305
299 299 299 301 300 300 301 302 302 302 302 302 302 302 301 301 301 301 303 303 301 299 300 300 300 301 302 302 302 303 303 302 302 302 301 300 299 300 300 301 302 302 302 301 302 302 302 302 302 301 301 302 302 302 302 302 301 301 301 301 301 301 302 302 303 303 303 303 303 304 305 306 307 309 311 311 311 312 311 309 307 306 305 305 304 304
299 298 298 300 301 300 301 302 301 300 301 302 302 301 301 300 300 302 305 304 300 299 300 300 300 301 302 301 302 303 302 302 301 301 301 300 299 300 301 301 301 301 301 301 301 301 301 301 301 301 302 302 302 302 301 301 301 301 301 301 301 302 302 302 303 303 303 303 303 303 304 306 307 308 310 311 311 311 310 308 307 305 304 304 305 305
299 297 297 298 299 300 300 301 301 300 301 302 302 301 300 301 302 304 304 300 298 298 300 300 301 302 302 301 301 302 301 301 300 300 301 300 299 301 301 301 300 300 300 300 300 300 300 301 301 301 301 301 301 301 301 301 301 301 301 301 301 302 302 302 302 302 302 303 303 304 304 305 307 308 310 310 310 310 309 307 306 305 304 304 304 304
297 297 297 297 298 298 298 300 299 299 300 301 301 300 300 301 302 302 300 298 297 298 300 301 302 303 303 303 303 302 301 301 300 300 300 300 300 300 300 300 300 300 299 300 299 299 300 300 300 301 300 300 301 301 301 301 301 301 301 301 301 302 302 302 302 302 303 303 303 304 305 306 307 308 309 310 310 309 307 306 305 304 303 303 303 303
298 297 297 296 296 296 297 298 299 298 299 300 300 299 299 299 299 298 297 297 299 299 300 301 303 303 303 303 303 302 301 300 300 300 300 299 299 299 299 299 299 299 299 299 299 299 300 300 300 300 300 300 300 300 300 300 301 301 301 301 302 301 302 302 302 303 303 303 303 304 305 306 307 308 309 309 308 307 305 303 302 302 302 302 303 303
297 297 296 296 296 297 297 298 299 298 298 299 298 297 298 298 297 297 297 297 298 299 300 300 301 301 301 300 300 300 300 300 300 300 299 299 299 299 299 299 299 299 299 299 299 300 300 300 300 300 301 300 300 300 300 300 300 301 301 301 301 301 302 302 303 303 303 303 303 304 305 306 307 308 308 307 305 304 303 301 301 301 301 302 302 301
296 296 296 296 296 297 297 297 297 297 297 297 297 297 298 298 297 297 297 296 297 298 299 299 299 300 300 299 299 299 299 299 299 299 298 298 298 298 299 299 299 299 299 300 300 300 299 300 300 300 300 300 300 300 300 300 301 301 301 301 301 301 302 303 303 304 303 303 303 304 305 307 307 307 306 305 304 303 302 302 302 302 302 301 300 299
296 295 296 296 296 296 297 296 296 296 297 296 296 297 297 297 296 296 296 296 297 298 298 299 299 299 299 298 298 298 298 298 298 298 298 298 298 298 299 300 300 300 300 300 300 300 300 300 300 300 300 301 301 301 301 301 301 301 301 301 301 302 302 303 304 304 304 304 304 304 306 306 305 304 304 303 303 303 302 301 301 300 301 301 301 301
295 295 295 296 296 296 296 296 296 296 296 296 296 296 296 296 296 296 296 296 297 297 297 297 297 298 298 298 297 297 298 298 297 298 298 298 298 298 299 300 300 300 300 300 300 300 300 300 300 301 301 301 301 302 302 302 302 302 302 302 302 303 303 304 304 304 304 304 305 305 305 305 303 302 302 302 302 301 300 299 298 299 301 302 301 300
295 294 294 295 295 295 296 296 296 296 296 296 295 296 295 295 295 295 296 296 296 296 296 296 297 297 297 297 297 297 297 297 297 297 297 298 298 298 299 300 300 300 300 300 300 300 300 300 301 301 301 302 302 302 302 302 302 302 302 302 303 304 304 305 305 304 304 305 305 305 304 303 302 301 301 301 301 300 300 300 300 301 301 301 299 297
295 295 295 295 295 295 295 295 295 295 295 295 295 295 295 295 295 295 295 295 295 295 295 296 297 297 297 297 297 297 297 297 297 297 297 297 297 298 299 299 300 300 300 300 299 300 300 300 300 301 301 302 302 302 302 302 302 302 303 303 304 304 305 305 305 304 304 305 305 304 303 302 301 302 301 300 298 298 299 299 300 300 299 298 296 295
295 294 295 295 294 294 294 294 294 294 294 295 295 295 295 295 294 295 295 295 295 295 295 296 296 297 297 297 297 296 296 297 297 297 297 297 298 299 299 299 300 300 300 299 299 300 300 300 300 301 301 301 301 302 302 302 303 303 304 304 304 305 304 305 304 304 304 305 304 303 302 301 301 301 300 298 297 296 297 297 297 298 297 296 294 294
295 294 294 294 294 294 294 294 294 294 294 295 295 295 295 295 294 294 294 294 294 295 295 295 296 296 296 297 298 297 296 296 297 298 297 297 298 299 299 299 300 299 299 299 299 300 300 300 300 300 301 301 301 302 302 303 303 303 303 304 304 304 304 304 304 304 304 304 303 302 301 300 299 298 298 297 297 296 297 297 296 296 295 294 293 294
Wind_Speed
0 1 1 2 2 2 2 1 2 2 2 2 2 2 2 1 1 1 1 2 2 1 0 1 1 3 4 5 3 0 1 4 6 6 6 7 7 8 9 10 10 10 7 3 5 9 15 19 20 20 20 21 22 23 24 23 23 22 22 21 22 21 20 18 16 15 13 13 13 12 11 10 10 9 8 7 5 4 4 4 4 4 4 3 3 4
0 0 1 3 3 1 1 3 4 4 3 2 2 2 1 2 1 1 1 2 2 1 0 1 2 3 3 4 3 1 2 5 7 8 9 10 10 8 10 12 11 8 5 4 6 8 14 19 21 20 20 22 23 25 25 25 24 23 22 22 23 22 21 19 16 14 13 13 13 12 12 11 11 10 8 7 5 4 5 5 5 5 4 4 3 4
0 1 3 2 2 4 4 4 4 4 3 2 1 2 2 2 2 2 0 2 2 1 0 1 3 4 3 4 4 3 4 3 3 6 7 9 11 10 11 12 10 8 6 8 8 9 13 18 20 21 21 23 25 26 26 25 25 24 23 23 24 23 22 19 16 13 13 12 11 10 10 11 11 10 8 7 6 6 6 6 6 5 5 5 6 7
0 1 1 2 5 5 4 3 4 4 2 1 2 2 1 1 2 1 1 2 2 1 1 1 3 4 2 2 2 2 4 4 3 2 3 6 9 11 11 10 10 11 10 11 10 9 11 14 18 21 23 24 25 26 27 26 26 26 25 24 25 25 23 20 17 14 13 12 11 9 9 10 9 9 8 7 7 7 7 6 6 6 6 8 8 8
2 1 4 4 3 3 3 3 4 3 2 1 3 3 1 1 2 2 1 3 1 2 2 2 4 2 1 1 2 1 3 4 3 3 3 5 6 7 7 7 10 11 11 11 11 10 12 15 19 22 24 26 26 27 29 30 29 28 27 26 27 26 24 21 19 17 15 15 13 11 11 9 8 9 9 8 7 6 6 6 6 7 8 9 8 8
2 0 4 4 2 2 3 3 4 4 2 1 4 6 4 3 3 2 1 1 1 0 3 3 4 1 2 1 1 1 2 2 1 2 4 3 3 5 7 8 9 9 9 10 12 12 13 16 18 20 23 27 29 30 32 32 31 30 28 27 28 27 25 23 21 19 18 17 16 14 14 12 10 9 9 8 7 7 6 6 6 7 8 7 7 7
0 1 2 3 3 3 2 2 4 5 3 1 3 6 5 3 3 3 1 1 2 2 2 2 3 3 1 1 1 2 5 4 2 2 0 0 2 3 6 7 8 9 10 9 11 12 13 15 16 18 23 28 31 32 32 32 31 30 29 28 29 28 26 25 23 22 20 20 18 16 16 14 13 11 9 8 7 7 7 6 7 7 7 7 7 7
2 2 2 2 3 3 2 2 3 6 5 1 1 4 7 5 4 4 3 1 1 2 1 1 1 4 3 1 1 2 4 4 3 4 5 3 2 3 5 6 7 9 10 10 11 12 13 14 18 21 24 29 33 31 31 32 32 31 30 29 29 29 28 27 26 24 23 22 20 18 16 15 14 11 9 9 9 8 8 7 7 7 8 8 7 7
2 2 1 2 1 1 2 0 5 9 4 1 1 4 5 4 3 3 2 1 1 2 3 1 1 3 3 1 1 1 2 3 4 8 10 8 6 5 6 7 9 9 9 10 12 12 13 16 20 21 20 24 30 30 31 33 32 32 31 29 30 30 29 28 28 26 24 23 20 19 17 16 15 12 10 10 11 10 9 9 8 8 8 8 7 7
1 2 2 3 2 2 1 1 4 7 2 2 5 5 6 5 5 3 1 2 2 3 5 1 1 3 4 1 1 2 2 4 6 8 9 9 9 8 7 7 8 9 9 9 10 12 13 15 17 16 15 20 26 28 29 31 31 32 31 31 32 32 31 31 30 28 27 24 22 20 18 18 16 13 11 12 12 12 11 11 10 9 9 8 7 7
2 1 1 2 2 1 3 3 1 1 3 5 5 5 6 4 3 2 2 1 1 3 3 2 2 3 4 1 2 2 3 4 6 7 8 10 12 12 10 10 9 8 8 8 9 10 11 10 11 14 15 19 23 24 26 29 30 32 32 31 32 33 33 33 31 30 29 26 24 22 20 19 18 16 13 14 14 14 13 12 12 11 10 9 8 8
2 1 2 2 1 2 4 4 3 2 3 4 2 3 3 1 1 1 1 1 3 4 0 3 2 3 4 1 2 2 4 4 4 6 9 11 12 12 12 12 10 8 7 6 7 8 9 9 12 15 17 19 22 24 26 29 31 32 31 30 31 33 35 34 33 32 31 28 26 24 22 20 20 19 17 16 16 15 15 14 14 13 12 11 9 9
3 2 1 2 1 3 2 3 3 1 2 2 2 3 2 1 1 1 1 1 4 3 1 2 1 2 4 2 2 3 3 3 4 5 7 10 11 11 12 12 10 8 6 4 4 5 7 8 10 13 14 16 19 22 25 28 30 31 31 32 32 34 35 35 34 34 32 31 28 26 24 22 21 21 21 19 18 17 16 15 15 15 14 14 12 11
3 1 1 1 1 1 3 4 2 2 4 4 3 3 4 2 1 2 2 1 3 2 2 1 1 2 3 0 2 3 3 4 5 5 6 8 9 9 10 10 9 8 6 2 1 3 5 6 7 9 9 11 13 15 20 25 28 30 32 33 33 33 34 35 35 35 34 33 30 27 25 24 22 22 23 22 21 19 17 16 16 15 15 15 15 14
2 2 0 1 0 1 2 3 1 2 3 2 1 2 3 3 2 3 3 3 4 0 2 0 2 2 1 1 2 3 4 4 4 5 6 6 6 6 7 9 9 9 8 6 3 3 3 5 7 8 8 9 10 12 17 22 25 28 31 30 29 29 31 33 34 35 35 34 32 29 27 26 24 24 24 24 23 21 19 17 17 15 14 14 14 14
2 3 2 1 1 1 1 1 1 2 3 1 1 1 2 3 3 1 1 1 1 0 1 2 2 1 1 1 2 2 2 3 4 5 5 6 7 6 7 9 10 10 10 8 6 5 4 4 6 9 10 10 11 14 18 22 25 28 29 27 26 26 28 30 31 32 32 32 31 29 28 27 26 25 25 25 24 22 20 18 17 16 14 14 14 15
1 3 1 1 1 1 1 1 1 1 1 3 2 3 1 0 3 3 0 2 1 3 2 1 2 1 1 1 1 1 3 4 4 5 6 7 8 8 9 9 10 10 10 10 9 8 6 4 4 6 10 12 13 15 19 22 26 28 28 25 23 23 25 28 29 30 30 29 28 27 27 26 26 26 26 27 25 23 21 19 18 17 16 15 15 15
2 3 1 1 1 1 1 1 3 2 0 2 3 3 3 1 2 2 1 2 0 4 2 1 3 3 3 3 3 4 3 3 4 5 6 7 8 9 8 9 10 10 10 11 12 11 10 9 7 3 4 8 11 14 17 20 23 25 27 25 22 22 25 26 27 28 29 29 29 29 29 28 27 27 27 28 26 24 23 21 20 19 18 17 17 16
1 4 2 0 2 2 2 1 2 3 2 1 1 3 2 2 2 2 2 2 2 3 2 2 2 3 4 4 7 7 4 3 2 3 4 6 7 7 7 9 10 10 10 11 11 11 10 11 12 10 7 4 5 9 12 16 19 21 25 25 24 24 25 26 26 26 27 29 31 32 33 31 29 28 29 29 28 26 25 24 22 22 21 19 18 18
0 2 2 1 1 3 2 1 2 2 2 2 2 2 0 2 1 2 1 1 3 3 1 2 2 3 4 4 8 9 5 2 1 1 2 4 4 4 5 7 8 9 9 9 9 10 10 12 15 16 13 12 8 4 5 8 12 15 20 23 23 23 23 24 25 25 25 28 30 32 32 30 29 29 30 30 30 29 27 26 25 24 23 21 20 20
1 1 2 1 1 3 1 0 2 1 2 2 2 3 1 0 0 1 1 1 1 3 2 3 3 2 1 2 6 8 5 3 2 0 1 2 2 3 4 5 6 7 8 8 9 9 9 11 15 16 16 19 19 14 8 4 2 6 11 15 18 20 21 22 23 24 25 28 30 30 30 30 30 32 32 33 33 32 31 29 27 26 25 24 23 22
0 1 2 2 3 3 1 2 2 1 1 1 2 2 2 2 1 3 3 1 1 2 2 3 3 2 2 1 3 5 3 2 2 2 2 2 1 2 4 4 5 6 6 7 7 8 9 11 13 14 16 20 22 21 19 15 10 5 3 7 11 16 18 20 21 24 26 28 29 30 31 32 34 34 34 34 35 35 34 32 30 28 27 26 26 25
1 1 1 3 4 3 2 2 2 2 1 0 0 1 2 2 2 4 5 2 2 1 1 1 2 1 2 2 2 2 1 1 2 3 3 2 1 1 3 4 5 5 5 6 6 7 8 9 11 13 15 17 18 20 22 22 20 17 12 7 4 8 11 14 16 20 24 27 29 30 32 34 36 37 35 34 35 36 36 35 33 31 29 28 28 27
1 1 1 3 3 2 1 0 0 1 1 1 1 1 1 1 0 1 2 0 2 2 2 2 3 2 2 2 1 1 1 2 2 4 4 3 2 1 3 4 4 4 5 5 5 5 6 8 10 12 13 14 14 15 17 19 21 21 19 15 11 7 4 6 11 15 19 23 27 29 30 32 36 38 37 35 35 36 37 36 34 33 31 30 29 29
1 1 1 2 3 2 2 2 2 2 1 1 0 1 0 1 3 2 1 1 2 2 2 4 4 2 3 2 2 2 2 3 3 3 3 3 3 2 2 3 3 4 5 6 6 6 7 8 9 10 11 11 11 12 13 15 17 18 19 18 18 16 13 8 5 9 14 20 26 28 29 31 33 36 37 36 35 35 35 35 34 33 33 32 31 30
2 1 1 3 5 5 5 4 2 1 1 1 0 1 1 2 2 2 1 2 3 1 2 3 3 1 2 2 2 2 2 4 4 3 2 1 1 1 1 2 2 3 4 5 6 6 7 7 8 9 10 10 11 11 11 11 11 12 13 15 17 18 17 15 10 4 7 15 21 24 27 29 31 33 35 35 34 33 33 33 33 33 33 33 33 32
1 1 2 4 6 6 6 4 1 1 3 3 2 3 2 1 1 2 2 2 3 2 3 3 1 1 3 6 5 3 4 6 5 5 4 2 1 1 0 0 1 1 2 3 4 5 5 6 7 9 10 11 11 12 11 11 10 10 10 11 13 15 17 17 15 11 6 6 12 17 22 26 29 31 32 33 32 32 31 31 31 32 33 33 30 29
1 1 1 2 6 5 4 3 1 0 5 6 5 5 4 3 3 3 4 3 3 2 5 4 4 4 4 7 8 7 6 6 6 7 6 3 2 2 1 1 0 1 1 2 3 4 5 5 5 7 8 9 10 11 12 13 14 15 16 17 18 18 19 20 19 17 14 10 7 11 16 22 26 29 31 31 30 29 29 30 31 31 32 32 29 27
1 2 2 2 4 3 3 4 3 3 5 5 5 7 6 5 6 6 6 5 6 7 7 5 8 8 5 6 9 8 8 9 9 7 4 2 2 2 2 1 1 1 2 3 3 3 3 3 4 5 6 7 8 9 10 10 11 13 15 17 20 21 22 22 22 21 19 16 12 11 12 16 21 25 28 30 29 28 28 29 30 30 31 32 31 31
1 2 2 3 4 4 5 5 4 4 5 5 7 8 7 6 8 8 7 4 7 9 5 3 7 9 5 5 6 4 3 5 5 3 2 2 3 3 2 2 1 1 2 3 4 3 3 3 4 4 5 6 8 9 9 9 10 11 12 13 16 19 21 21 22 22 21 19 17 15 13 12 15 19 23 27 28 29 29 29 29 29 30 32 33 33
1 2 1 1 4 5 5 6 6 7 8 10 10 7 5 6 7 8 6 3 4 7 4 4 8 7 5 5 3 1 1 2 4 4 4 3 3 3 3 3 1 2 3 4 4 4 4 5 5 7 8 9 9 10 10 10 11 12 12 13 15 16 18 20 21 21 21 21 20 19 16 13 12 13 17 22 25 27 28 28 28 28 30 32 32 33
1 1 1 0 5 5 5 8 10 7 8 11 10 6 7 9 7 5 5 5 6 8 7 7 8 6 4 4 3 1 3 5 6 6 4 2 2 4 4 2 1 2 3 4 5 5 6 6 7 8 9 10 10 10 11 11 12 12 12 13 14 16 18 20 20 20 20 21 21 21 19 15 12 11 14 18 22 24 25 26 27 27 30 31 31 32
1 2 1 1 4 4 4 5 6 5 7 9 5 5 10 11 8 7 6 5 8 9 7 6 5 3 1 2 5 7 8 7 5 3 1 2 3 5 5 3 1 1 2 3 4 5 6 7 7 8 9 10 11 11 12 12 13 13 14 15 15 16 18 18 17 18 20 21 21 20 20 18 14 12 12 15 18 22 23 25 26 27 29 31 31 33
1 2 2 2 2 3 1 2 2 4 7 4 1 1 6 9 9 10 7 3 4 5 4 4 2 3 2 2 4 4 5 3 1 1 0 1 2 4 5 4 4 3 3 2 2 3 5 6 7 8 10 12 13 14 15 15 15 16 16 17 18 18 19 18 16 16 19 21 21 20 20 19 16 14 12 13 16 19 22 23 25 27 28 30 32 35
3 3 2 1 2 2 1 1 3 6 5 1 2 2 4 5 6 8 3 4 4 3 5 4 2 2 0 1 1 2 3 2 1 2 2 3 4 4 4 4 5 5 5 4 3 4 5 7 9 10 11 13 14 16 17 17 17 17 16 17 18 18 19 18 16 15 17 20 22 20 19 18 16 14 12 12 15 19 21 22 25 26 28 32 35 37
3 3 2 1 2 1 0 3 4 3 4 3 2 2 2 2 2 2 1 4 6 5 4 3 2 2 1 2 3 3 2 2 2 2 2 3 4 4 4 5 6 5 6 6 5 5 7 9 11 13 14 15 16 16 17 17 18 17 16 16 17 18 17 16 15 15 17 19 21 19 18 16 15 14 12 12 16 19 21 23 25 27 31 34 35 36
4 3 2 2 3 2 2 4 3 4 6 4 1 3 2 1 2 2 1 3 5 5 4 4 4 4 3 3 4 2 2 2 0 2 3 3 1 2 3 5 5 6 7 8 8 10 12 15 16 17 18 18 18 18 18 19 19 17 15 15 16 16 15 14 14 16 17 18 19 18 17 16 14 13 13 14 17 20 22 24 26 30 33 35 35 35
2 1 2 3 2 1 2 4 3 4 4 1 1 2 3 2 1 2 1 2 4 5 4 4 6 6 5 4 4 3 2 2 1 0 4 5 4 2 3 5 6 7 8 10 12 13 16 18 19 19 18 18 19 20 21 21 21 18 15 15 16 16 15 13 14 16 17 17 17 17 17 16 14 13 14 15 18 22 24 25 27 30 33 36 37 37
3 2 1 2 2 1 3 4 4 3 2 0 1 3 3 2 2 2 3 2 2 4 4 4 6 6 5 4 4 2 2 2 2 2 5 7 6 4 5 8 10 11 12 13 14 15 17 20 20 19 19 18 20 22 23 22 20 18 16 16 16 16 15 15 16 17 16 17 17 17 17 16 15 14 15 17 20 23 25 26 28 30 32 33 33 32
3 2 0 3 3 2 3 4 4 3 1 0 2 4 3 1 3 4 5 2 2 5 4 3 5 6 3 2 1 0 2 2 3 6 7 5 4 5 7 9 11 13 15 15 15 17 19 20 19 19 19 20 22 24 23 22 19 17 17 18 17 15 16 18 19 18 17 18 18 18 18 17 15 15 16 17 21 24 25 26 28 30 32 33 32 30
1 1 0 2 2 3 3 4 3 2 1 1 2 4 1 2 3 4 4 2 4 7 5 2 4 4 2 0 1 1 3 4 5 7 7 6 7 8 9 11 13 14 16 16 17 18 18 18 18 19 20 23 24 25 25 23 19 17 18 18 16 17 21 23 21 19 19 19 19 18 18 16 15 15 16 17 21 24 25 26 30 33 34 34 34 32
0 1 1 1 1 1 2 3 4 3 0 1 1 3 1 2 2 2 3 3 5 7 6 3 4 4 2 3 3 3 5 6 6 7 8 9 10 10 11 12 13 13 15 17 18 18 18 17 18 19 22 25 26 25 26 23 19 18 19 18 18 23 26 23 20 19 19 19 19 18 17 16 15 15 16 18 22 25 26 27 30 33 34 34 33 31
1 1 2 2 1 1 2 3 3 2 1 2 3 3 1 1 2 3 5 5 4 5 6 5 4 3 3 3 3 4 5 7 7 7 8 9 9 10 12 13 12 13 14 15 16 17 17 17 18 19 21 23 24 25 25 22 20 19 19 20 24 28 26 20 18 19 19 19 19 18 17 16 15 15 17 20 22 23 24 25 27 29 31 31 31 29
1 1 2 1 1 1 3 3 1 1 1 1 4 5 2 0 2 5 6 6 5 5 5 4 3 4 3 3 5 6 6 7 7 8 8 9 9 10 11 13 14 16 16 16 17 17 17 18 19 19 20 20 21 23 23 22 20 20 20 24 29 29 24 20 19 19 18 18 18 17 16 15 13 14 18 21 22 21 21 23 26 28 28 28 25 22
1 1 3 3 2 3 4 4 5 6 4 2 2 5 5 5 6 6 7 7 7 6 4 3 4 4 3 4 7 8 8 8 9 10 10 11 12 12 13 15 17 19 18 18 18 17 17 19 19 19 19 19 21 22 22 22 21 20 22 26 28 25 23 21 20 18 17 16 16 16 15 12 12 16 19 22 24 25 27 27 28 27 26 23 21 19
2 2 2 4 3 4 6 5 4 7 8 6 4 5 6 7 8 7 6 6 6 7 6 5 6 6 5 7 8 8 9 10 11 12 12 12 13 14 14 16 18 19 19 19 19 18 18 19 19 18 19 20 21 21 22 22 21 22 24 25 25 23 22 22 22 19 17 15 15 15 12 11 13 16 20 23 26 29 31 30 28 25 21 18 18 17
2 2 2 5 5 5 4 4 5 9 10 10 9 8 7 8 7 5 4 5 6 7 8 8 8 8 8 8 9 10 11 11 12 12 12 12 13 14 14 16 18 18 19 20 20 20 19 18 19 19 19 20 20 19 20 21 22 23 24 24 23 22 23 23 23 20 17 15 14 12 11 14 17 22 26 29 31 32 31 29 28 25 22 19 18 16
1 2 3 5 5 6 7 8 10 12 12 10 9 8 7 8 8 6 6 6 7 8 8 9 9 9 9 10 10 11 12 12 12 12 11 12 12 13 14 17 19 19 20 21 22 20 19 19 20 20 21 22 21 20 21 23 24 24 24 23 23 23 24 24 23 20 17 14 12 12 15 19 25 30 31 32 33 32 29 27 26 24 23 22 21 19
1 3 5 5 6 8 9 9 10 11 10 9 9 9 7 7 10 11 9 8 9 11 11 11 11 11 10 11 11 11 13 13 13 13 14 13 12 13 15 18 20 21 21 21 21 20 19 20 22 23 24 25 24 24 25 26 25 23 23 24 23 23 24 23 22 20 17 14 14 17 21 25 30 35 35 34 34 31 27 25 23 21 21 22 22 21
2 6 6 5 7 7 8 9 10 10 10 10 11 14 12 9 10 12 12 12 13 13 12 13 14 14 13 13 11 10 12 14 14 15 15 14 14 17 20 22 24 25 24 23 23 23 23 24 25 25 26 26 27 27 26 26 25 25 24 24 23 23 23 23 22 19 17 16 18 23 26 28 31 35 35 34 32 29 26 24 21 19 20 21 20 18
4 6 6 6 8 9 11 12 11 9 10 11 13 15 15 11 11 13 15 15 16 16 14 13 14 14 13 13 12 12 12 15 17 18 17 17 19 22 24 25 25 25 26 25 24 25 27 26 25 25 26 27 26 25 25 26 26 24 22 21 21 22 23 22 20 18 19 21 24 28 30 30 31 33 32 30 29 27 25 23 20 19 20 21 19 15
Wind_Direction
333 154 182 224 247 267 216 184 115 121 123 107 125 148 148 196 235 261 246 23 348 269 110 77 299 286 284 283 259 301 75 174 177 180 194 199 204 207 210 216 219 225 225 183 183 197 198 204 206 202 200 199 196 195 193 189 188 186 183 182 183 183 185 184 177 171 168 163 161 159 157 157 156 155 152 146 143 134 124 116 104 91 82 74 64 59
316 117 216 235 235 232 149 147 126 113 112 114 152 164 176 221 238 352 340 5 1 280 133 91 282 263 263 283 277 289 241 202 186 184 194 198 203 208 212 219 221 221 213 193 198 188 191 200 203 203 201 199 198 196 194 191 189 187 184 184 184 183 185 187 183 178 177 172 166 163 161 162 159 157 154 149 148 144 135 125 113 103 89 80 83 83
21 251 251 237 164 102 87 126 133 115 119 125 154 188 193 215 275 295 260 357 4 304 253 100 297 280 264 274 271 248 229 229 206 195 201 199 199 205 210 216 219 217 213 210 205 187 188 194 197 201 202 202 201 198 195 192 189 185 184 185 186 185 186 189 188 186 184 177 174 172 167 164 161 160 161 154 142 130 127 120 107 93 81 83 98 103
317 208 188 140 141 124 95 124 132 116 128 153 164 211 206 120 284 250 167 351 10 16 342 288 283 284 284 265 242 249 258 284 307 255 228 210 207 211 212 213 210 207 208 210 206 191 185 187 192 198 201 201 201 200 197 193 189 185 185 188 188 187 188 188 188 190 187 178 176 173 168 168 164 160 158 147 132 124 121 115 101 87 87 93 101 103
259 129 117 120 143 141 121 145 165 159 165 194 194 210 209 178 229 248 325 320 316 103 40 315 272 261 345 308 157 96 286 275 311 313 264 230 223 231 237 233 218 210 208 205 202 192 186 190 193 195 197 198 199 202 199 194 191 187 187 191 190 188 188 187 188 190 185 178 176 170 165 169 162 157 157 151 142 136 128 115 102 97 103 105 101 96
280 133 143 137 133 154 155 176 198 190 184 223 216 211 205 187 192 212 316 315 266 97 45 352 289 253 42 321 182 42 313 256 233 268 253 241 232 227 236 237 231 229 223 211 205 197 193 195 191 187 191 196 200 203 200 196 193 189 190 193 191 190 189 187 189 190 184 179 179 173 169 170 166 166 172 170 159 148 137 120 107 108 114 112 102 94
4 88 146 138 130 154 178 223 211 189 177 209 215 192 178 157 153 162 173 231 308 317 28 3 290 277 330 336 23 343 317 305 273 252 227 346 256 228 230 231 228 231 230 223 216 207 201 195 187 186 191 195 200 203 199 196 194 190 192 194 192 191 190 188 189 189 185 181 182 182 179 180 180 180 180 175 162 152 146 128 112 110 117 114 103 98
153 119 75 86 109 139 194 258 197 178 171 170 159 153 152 153 162 160 157 181 322 312 307 49 318 279 283 306 19 310 298 312 325 347 4 1 301 281 268 255 242 235 226 221 221 214 206 197 191 193 194 195 200 200 197 196 194 191 193 195 194 192 192 191 190 190 187 184 184 186 189 191 191 188 181 174 167 161 154 141 125 114 116 117 107 100
161 187 174 152 132 206 236 239 167 177 182 8 103 124 130 125 127 133 136 135 62 290 253 124 87 270 271 251 2 336 326 343 349 343 338 334 326 305 283 277 272 264 248 231 225 217 207 202 199 196 192 194 199 199 196 196 194 192 194 197 196 194 194 194 193 192 190 188 187 189 194 199 199 196 186 178 174 168 162 154 144 129 124 122 113 102
212 237 206 179 217 251 250 62 169 186 186 131 134 105 86 77 70 80 96 116 94 272 261 299 29 272 277 275 346 12 27 343 330 329 323 324 328 321 313 306 290 280 272 254 241 229 216 206 199 190 183 189 199 200 197 196 194 192 195 198 197 195 196 197 196 194 193 193 193 194 199 205 207 205 194 184 180 174 170 164 157 148 140 134 124 112
293 272 192 196 231 187 108 82 71 152 120 150 149 101 86 72 55 68 50 66 164 244 258 354 359 259 275 286 84 5 331 308 306 315 321 326 332 330 330 330 317 301 284 260 247 235 221 204 188 183 182 188 196 197 195 196 194 193 196 198 197 197 198 199 198 198 197 196 197 199 202 208 215 215 204 193 187 181 177 173 167 162 155 149 141 128
324 193 193 263 213 123 114 92 49 56 124 157 156 113 117 72 59 105 64 97 232 247 323 13 323 235 252 235 89 343 305 298 291 303 318 324 328 327 328 331 328 319 299 263 239 221 203 189 181 183 183 182 187 191 192 195 194 194 197 199 199 199 201 200 199 200 201 200 201 203 205 210 218 221 215 206 198 190 183 180 175 170 166 162 156 144
307 214 263 303 188 154 158 114 87 98 164 182 145 141 206 241 92 237 247 197 238 257 37 8 284 229 245 269 20 336 329 340 315 305 315 321 322 326 330 332 333 331 316 277 225 202 187 179 179 183 180 174 179 186 189 192 193 193 198 202 202 201 202 202 201 202 203 204 204 205 208 212 218 224 223 217 210 201 192 187 182 176 173 171 167 159
300 269 54 256 163 132 210 193 174 186 191 196 173 169 219 213 155 231 221 246 262 258 53 355 261 247 245 235 12 340 355 350 332 329 331 332 330 330 335 339 345 350 342 338 146 172 175 167 167 175 175 169 172 177 182 189 192 195 200 204 204 203 203 203 203 203 205 207 208 208 211 214 218 224 226 224 218 211 203 196 192 186 181 178 174 166
287 279 140 178 59 54 234 234 190 118 158 195 163 160 208 202 210 245 226 238 261 160 78 204 218 235 235 60 355 334 354 353 353 353 347 355 353 342 352 3 5 8 9 16 53 99 131 145 151 158 163 165 166 171 179 188 194 198 203 207 205 203 204 204 204 205 205 208 210 212 215 218 222 227 229 228 225 219 213 205 201 196 189 184 177 170
267 268 281 308 293 114 264 265 91 115 147 128 49 165 210 204 181 235 300 274 285 191 135 203 228 272 324 346 332 344 30 33 15 6 13 18 12 11 22 23 19 21 23 23 35 57 75 117 142 150 157 165 170 176 185 191 196 201 207 211 209 205 206 207 207 207 208 210 213 215 218 222 227 231 232 232 230 226 221 214 210 205 198 190 180 173
228 261 296 321 273 78 322 218 133 261 191 133 183 194 178 101 125 130 117 55 6 246 198 179 225 210 185 212 141 93 72 66 35 21 30 21 15 24 28 24 22 25 28 30 35 40 43 64 113 148 161 169 174 180 188 194 198 203 208 212 212 209 210 212 211 211 211 212 216 219 223 228 232 235 235 234 234 233 228 223 218 213 207 198 186 180
242 262 315 295 236 62 313 205 85 32 18 147 194 170 128 94 94 126 200 82 141 243 217 181 227 203 189 181 149 151 129 84 47 28 32 25 22 25 22 20 23 23 28 34 38 39 38 41 47 68 149 168 175 181 190 197 201 205 209 213 214 213 214 215 216 214 213 213 216 220 224 229 233 236 237 236 237 237 234 229 224 219 214 205 195 189
254 268 312 319 243 344 349 213 107 66 35 3 178 129 126 218 193 156 188 170 202 235 222 190 224 228 218 182 158 168 160 105 53 27 39 35 26 16 11 17 20 20 25 30 35 37 36 41 46 46 51 82 156 183 192 200 205 208 213 217 218 219 219 219 221 219 216 216 218 219 223 227 231 234 236 236 237 238 237 234 229 224 219 212 204 198
263 273 284 127 268 321 351 240 219 140 83 70 130 128 59 272 231 181 179 197 217 223 216 202 205 219 217 173 160 166 164 153 142 42 54 47 27 11 12 19 19 21 22 24 29 35 35 41 49 51 52 60 74 122 178 196 207 212 217 220 222 224 223 223 225 224 222 221 222 223 224 227 232 235 234 234 237 239 239 237 233 229 222 216 211 204
105 252 267 320 325 277 269 5 276 199 128 135 171 183 181 123 337 225 168 86 221 204 178 203 224 204 154 160 160 153 150 167 174 155 87 64 43 33 33 29 27 27 24 22 23 26 27 35 48 52 54 62 67 67 73 98 203 230 227 226 226 226 225 225 227 228 227 227 228 227 224 225 231 235 233 232 235 238 240 238 235 233 226 219 215 210
101 191 248 300 304 276 312 22 331 282 273 219 204 218 193 155 187 220 210 175 211 227 177 190 227 191 120 160 159 134 144 188 179 172 140 85 58 43 46 39 35 30 26 25 23 25 24 27 38 47 50 56 59 57 58 62 56 30 302 253 241 232 228 227 228 231 233 232 231 231 228 227 230 235 233 232 233 236 238 238 236 235 230 222 218 215
134 149 234 270 281 289 333 342 299 269 269 243 236 221 172 156 203 233 234 203 165 199 105 142 242 193 121 149 161 138 175 205 162 159 146 125 92 32 45 46 44 40 31 27 27 31 32 30 33 40 45 48 51 50 51 55 55 48 36 9 303 254 242 235 232 234 237 236 235 235 234 232 233 236 236 234 234 236 237 237 236 235 233 227 222 218
160 183 261 270 285 307 325 344 210 182 161 167 48 64 172 176 107 255 271 173 190 188 146 198 239 183 133 123 131 144 154 157 164 162 152 150 150 73 40 35 36 38 36 36 37 38 40 41 39 39 42 44 45 46 45 47 50 51 46 38 32 20 330 271 248 243 243 243 242 240 239 237 236 238 238 237 237 238 238 238 236 235 234 231 225 220
246 232 238 273 291 282 237 202 204 193 179 236 346 71 199 93 96 104 98 125 231 214 175 233 241 169 129 118 99 100 131 152 169 181 178 163 146 113 56 34 23 23 29 33 34 32 33 38 39 39 40 41 43 43 40 39 41 42 39 34 34 36 31 13 308 259 251 249 246 243 241 242 242 241 242 242 240 240 240 239 237 235 233 232 227 222
248 197 206 250 261 252 245 249 254 248 246 274 226 194 175 122 138 175 147 177 225 200 171 226 245 87 113 157 146 113 159 181 180 197 229 212 122 91 61 40 17 19 29 30 30 28 27 28 30 32 33 34 36 37 38 37 35 32 29 27 27 29 30 30 24 344 265 250 245 244 245 246 247 246 245 245 245 244 242 240 239 236 233 232 227 220
171 208 224 237 251 256 261 266 328 355 277 263 256 232 186 147 186 167 163 213 206 184 198 205 225 248 194 194 194 176 188 200 189 189 204 197 171 170 150 317 335 21 31 33 33 28 25 23 21 23 23 23 25 27 29 29 26 20 15 15 18 19 20 21 21 19 355 277 254 250 250 250 252 252 251 250 248 247 244 242 241 238 234 229 221 216
121 256 215 212 248 256 268 268 167 199 261 260 264 250 214 193 188 175 210 208 133 202 240 193 183 224 209 203 215 210 203 210 206 201 199 188 179 177 189 259 323 51 45 45 43 33 27 22 18 18 17 16 16 18 19 19 16 12 8 7 7 8 10 8 7 8 5 351 311 273 261 257 257 257 257 256 253 250 246 244 244 240 235 228 221 220
156 255 200 191 248 234 222 249 221 216 250 245 246 249 234 215 200 202 221 185 160 227 251 176 182 212 207 208 224 219 205 204 202 198 192 187 196 188 189 200 148 62 40 41 40 34 25 14 12 14 13 13 11 10 11 10 7 5 3 2 1 1 1 360 358 357 354 350 341 316 292 275 266 263 261 258 256 253 250 247 246 241 236 230 224 220
208 259 181 188 258 251 240 246 209 211 251 248 237 238 233 230 223 224 234 199 197 240 263 160 206 224 208 209 230 231 203 194 180 169 187 213 206 195 204 206 169 60 39 37 29 22 13 3 2 6 8 11 7 2 359 356 354 353 352 354 354 355 354 353 352 350 346 342 337 330 320 299 280 271 266 260 255 253 251 248 245 239 231 226 220 213
235 269 112 158 265 265 262 267 241 226 248 258 255 246 232 234 235 238 242 211 221 257 256 202 229 242 231 230 249 3 91 155 165 183 204 211 204 205 219 218 183 48 38 31 19 10 5 1 360 0 1 1 357 353 349 346 344 343 344 347 346 345 346 345 343 342 339 336 333 329 325 313 292 274 266 261 255 251 247 244 240 233 224 218 214 208
212 243 84 205 268 260 245 257 261 261 267 262 255 247 239 231 219 222 224 196 209 237 234 221 234 247 237 226 226 184 177 191 195 195 197 202 217 224 227 221 125 53 35 20 10 4 1 358 356 354 349 346 345 343 341 338 335 334 336 337 336 335 336 336 334 332 331 331 330 328 322 316 302 277 262 258 254 248 242 238 233 226 217 212 207 201
181 235 221 216 267 268 234 252 281 306 289 266 236 224 243 239 229 229 225 209 213 223 229 233 245 285 305 209 215 209 195 195 196 178 176 202 215 230 238 248 281 6 12 3 357 353 352 349 343 337 332 330 332 332 331 329 325 324 328 328 327 328 328 326 324 323 323 324 326 324 319 313 304 284 263 255 251 246 239 232 225 218 212 207 201 195
176 236 240 212 250 266 275 351 326 268 261 261 105 231 256 251 252 252 251 257 242 239 265 277 296 353 346 223 231 214 171 158 141 55 301 228 213 240 253 263 274 282 293 309 334 338 339 334 325 320 320 320 321 322 323 322 319 319 323 324 324 324 322 319 316 315 316 318 319 319 315 309 302 288 271 257 250 244 236 227 220 215 209 202 195 190
182 206 217 199 227 259 359 15 250 244 251 304 30 315 270 265 269 264 273 20 9 318 303 300 319 357 296 158 29 43 87 74 315 266 240 220 219 248 267 270 272 273 280 294 313 322 323 322 317 313 312 313 315 316 315 315 316 316 318 320 319 318 316 314 310 308 308 310 311 312 310 306 299 288 275 259 251 243 232 223 217 211 204 198 193 189
184 181 185 181 191 204 191 195 213 275 315 302 308 337 307 297 311 266 178 52 24 350 329 325 344 14 59 90 65 52 52 1 293 240 188 191 212 242 265 276 282 278 278 291 305 307 308 313 312 308 306 306 306 306 304 306 310 311 311 313 313 311 310 308 305 302 300 301 303 304 303 302 295 284 270 255 246 237 226 220 214 207 201 196 190 185
180 166 177 212 204 183 220 224 238 310 305 278 307 12 333 322 6 328 231 62 29 1 358 8 11 13 14 42 59 48 10 351 292 118 86 85 124 222 260 281 293 290 282 284 289 291 297 304 306 304 303 302 300 297 297 301 305 304 303 305 305 303 301 299 297 296 294 294 296 298 298 297 290 278 263 247 238 231 224 218 211 204 199 192 185 180
160 176 197 223 223 165 235 260 266 279 281 264 73 343 306 255 259 289 238 113 46 12 359 3 10 7 1 16 30 16 358 345 257 146 39 23 20 17 324 308 307 301 293 291 292 295 298 302 303 303 301 298 294 294 297 300 302 300 298 298 297 295 294 290 288 288 287 287 289 292 292 289 284 273 257 240 232 228 223 215 208 202 196 190 184 179
103 38 134 221 241 184 221 252 248 238 250 43 304 315 323 251 212 228 235 209 52 15 349 351 1 1 1 15 21 359 339 311 266 299 350 353 353 356 334 316 309 303 297 295 295 295 296 298 299 298 295 289 287 292 296 297 296 295 294 293 292 291 289 284 283 284 284 283 285 285 283 280 276 267 252 235 229 227 221 212 205 198 191 186 179 174
107 60 100 230 245 213 220 251 254 246 260 325 286 312 339 149 186 234 248 250 4 337 320 330 341 344 2 34 55 306 285 280 291 317 333 337 324 307 298 294 295 296 295 293 292 291 292 293 292 289 286 283 285 290 293 291 289 287 286 288 286 283 281 282 284 286 285 283 281 279 275 273 268 260 246 232 228 224 216 208 202 192 185 181 176 173
67 8 276 243 252 227 224 251 264 261 238 192 281 312 339 146 196 247 261 312 327 309 305 296 292 303 318 277 223 252 277 278 287 303 310 306 296 288 281 278 280 283 286 285 285 286 286 283 280 278 278 281 285 289 289 287 283 279 280 281 277 275 280 283 285 285 284 281 277 274 271 268 263 254 241 229 225 219 210 204 199 189 181 177 174 172
348 333 274 220 264 246 218 258 281 287 79 110 296 298 258 206 235 278 304 305 289 292 298 278 262 265 248 231 229 244 273 281 281 285 289 291 291 289 285 283 278 273 274 276 277 278 274 271 271 270 273 279 284 285 285 283 277 275 277 274 270 276 281 281 281 282 283 280 275 272 271 268 261 251 237 225 221 214 203 196 191 185 178 173 169 166
321 299 265 211 240 274 225 232 265 283 70 53 342 331 331 286 321 331 320 296 271 277 282 266 249 253 246 240 241 252 274 286 287 284 283 283 283 284 286 287 283 278 276 275 275 273 269 268 268 265 267 274 279 281 281 278 272 272 273 270 274 280 280 277 277 280 279 276 273 271 270 267 259 244 228 217 210 201 189 181 176 172 168 163 159 159
273 262 289 274 237 250 231 217 244 323 57 38 332 316 303 306 331 324 311 298 282 270 258 245 250 255 251 272 290 290 286 282 282 285 285 283 281 283 286 287 285 283 280 277 275 274 271 269 267 266 267 270 272 275 275 270 267 267 267 271 278 281 278 275 277 277 273 272 270 268 268 263 249 229 213 202 191 178 166 160 158 155 153 152 152 156
303 325 297 278 258 268 273 275 292 303 311 332 308 290 290 303 314 309 297 290 290 283 262 259 282 278 262 285 297 298 293 287 285 285 283 282 283 282 283 284 282 281 281 280 278 274 271 269 268 267 268 268 269 271 270 266 262 260 263 270 275 274 272 272 272 269 266 265 266 266 263 248 221 204 195 185 175 163 152 147 145 145 149 154 158 161
308 343 276 260 286 302 285 273 284 296 301 306 294 274 278 288 295 299 297 295 302 304 298 294 297 293 290 295 298 295 293 294 294 290 285 283 283 280 279 279 278 277 279 280 280 278 277 277 275 271 270 270 269 268 267 265 262 259 262 267 267 265 266 267 264 259 256 258 264 262 243 207 182 174 170 163 157 150 143 140 139 141 149 160 164 165
310 21 295 275 291 299 286 296 315 307 304 308 308 298 289 284 280 283 295 298 301 304 302 299 296 290 286 286 286 285 286 286 286 285 283 281 280 280 279 278 277 277 278 279 281 282 281 281 280 277 276 275 272 270 271 271 269 266 265 265 262 261 261 258 255 251 246 248 255 244 207 175 157 151 150 148 144 140 137 137 139 143 153 162 163 158
317 23 313 284 275 275 279 289 297 294 292 294 296 295 298 300 296 287 281 283 288 291 289 285 283 283 285 287 286 286 286 282 277 276 277 277 278 278 279 279 280 280 280 281 283 283 282 282 281 280 281 281 280 280 281 280 276 272 268 265 261 258 256 252 248 243 239 240 237 211 182 165 154 148 144 143 142 141 143 148 152 157 162 163 158 152
298 292 290 288 286 284 283 286 291 294 291 284 282 285 286 289 294 292 285 279 283 287 289 286 283 281 282 284 285 285 284 282 279 278 279 280 280 279 281 283 285 285 283 283 284 283 282 282 281 281 282 282 283 285 284 280 276 272 268 265 262 259 254 247 240 235 232 226 208 185 169 160 154 149 145 144 145 145 148 156 162 163 159 154 151 152
263 282 289 293 291 287 290 298 304 304 298 291 293 297 295 289 288 287 283 281 282 284 285 285 284 282 279 276 274 275 279 281 281 282 283 282 282 284 286 287 288 287 286 285 285 285 283 281 280 280 280 280 282 283 281 277 274 273 271 269 263 255 248 239 233 230 222 203 184 170 161 154 151 148 147 148 149 147 147 150 154 154 149 144 144 148
252 290 300 296 294 293 293 298 301 295 289 288 290 294 297 298 291 284 280 279 280 281 281 278 277 280 279 275 270 268 273 279 282 284 285 284 283 284 285 285 285 285 285 285 285 284 282 281 278 277 277 278 279 279 277 277 278 276 271 264 253 245 239 232 222 212 198 182 168 160 154 150 147 147 148 150 149 146 143 142 143 146 146 144 144 147